Private Wetterstation Wechselburg
Wetterdaten: Samstag, 15.06.2013
Datum Zeit Temp. +2m Bodentemp. Temp.+5cm Temp. Wind Windchill X Diff Temp. Feuchte +2m Feuchte +5cm Sonnenschein Luftdruck Regen Wind Richtung Richtung Sonnenschein UV Taupunkt Windchill Windben
15.06.2013 00:00 11,7 C 23,2 C 12,9 C 11,6 C 11,4 C 0,0 C 85 % 82 % 0 % 1018,3 hPa 0,0 l/m 0,0 km/h (0 Bft) N-NW 337 0 min 0,0 UV-I 9,3 C 11,4 C 0,0 km/h (0 Bft)
15.06.2013 00:05 11,6 C 23,2 C 12,9 C 11,5 C 11,4 C 0,0 C 86 % 82 % 0 % 1018,3 hPa 0,0 l/m 0,0 km/h (0 Bft) N 360 0 min 0,0 UV-I 9,3 C 11,4 C 0,0 km/h (0 Bft)
15.06.2013 00:10 11,6 C 23,2 C 12,8 C 11,5 C 11,2 C 0,0 C 86 % 82 % 0 % 1018,3 hPa 0,0 l/m 0,0 km/h (0 Bft) NO 45 0 min 0,0 UV-I 9,3 C 11,2 C 0,0 km/h (0 Bft)
15.06.2013 00:15 11,5 C 23,2 C 12,7 C 11,4 C 11,1 C 0,0 C 86 % 82 % 0 % 1018,0 hPa 0,0 l/m 0,0 km/h (0 Bft) O-NO 67 0 min 0,0 UV-I 9,2 C 11,1 C 0,0 km/h (0 Bft)
15.06.2013 00:20 11,3 C 23,2 C 12,7 C 11,2 C 11,1 C 0,0 C 86 % 82 % 0 % 1018,0 hPa 0,0 l/m 0,0 km/h (0 Bft) N-NW 337 0 min 0,0 UV-I 9,0 C 11,1 C 0,0 km/h (0 Bft)
15.06.2013 00:25 11,3 C 23,2 C 12,5 C 11,2 C 11,0 C 0,0 C 86 % 82 % 0 % 1018,0 hPa 0,0 l/m 0,0 km/h (0 Bft) N 360 0 min 0,0 UV-I 9,0 C 11,0 C 0,0 km/h (0 Bft)
15.06.2013 00:30 11,2 C 23,2 C 12,5 C 11,1 C 10,9 C 0,0 C 86 % 82 % 0 % 1018,0 hPa 0,0 l/m 0,0 km/h (0 Bft) N 360 0 min 0,0 UV-I 8,9 C 10,9 C 0,0 km/h (0 Bft)
15.06.2013 00:35 11,1 C 23,2 C 12,5 C 11,0 C 10,7 C 0,0 C 86 % 82 % 0 % 1017,9 hPa 0,0 l/m 0,0 km/h (0 Bft) N 360 0 min 0,0 UV-I 8,8 C 10,7 C 0,0 km/h (0 Bft)
15.06.2013 00:41 10,9 C 23,2 C 12,3 C 10,7 C 10,4 C 0,0 C 86 % 82 % 0 % 1017,9 hPa 0,0 l/m 0,0 km/h (0 Bft) N 0 0 min 0,0 UV-I 8,7 C 10,4 C 0,0 km/h (0 Bft)
15.06.2013 00:57 10,6 C 23,2 C 12,1 C 10,5 C 10,4 C 0,0 C 86 % 83 % 0 % 1017,9 hPa 0,0 l/m 0,0 km/h (0 Bft) NO 45 0 min 0,0 UV-I 8,4 C 10,4 C 0,0 km/h (0 Bft)
15.06.2013 00:58 10,6 C 23,2 C 12,1 C 10,5 C 10,4 C 0,0 C 86 % 83 % 0 % 1017,9 hPa 0,0 l/m 0,0 km/h (0 Bft) NO 45 0 min 0,0 UV-I 8,4 C 10,4 C 0,0 km/h (0 Bft)
15.06.2013 00:59 10,5 C 23,2 C 12,1 C 10,4 C 10,3 C 0,0 C 86 % 83 % 0 % 1017,9 hPa 0,0 l/m 0,0 km/h (0 Bft) W 270 0 min 0,0 UV-I 8,3 C 10,3 C 0,0 km/h (0 Bft)
15.06.2013 01:05 10,4 C 23,2 C 11,9 C 10,4 C 10,3 C 0,0 C 86 % 82 % 0 % 1017,9 hPa 0,0 l/m 0,0 km/h (0 Bft) SW 225 0 min 0,0 UV-I 8,2 C 10,3 C 0,0 km/h (0 Bft)
15.06.2013 01:10 10,4 C 23,2 C 11,9 C 10,3 C 10,2 C 0,0 C 86 % 82 % 0 % 1017,9 hPa 0,0 l/m 0,0 km/h (0 Bft) S-SW 202 0 min 0,0 UV-I 8,2 C 10,2 C 0,0 km/h (0 Bft)
15.06.2013 01:15 10,3 C 23,2 C 11,7 C 10,2 C 10,1 C 0,0 C 86 % 82 % 0 % 1017,9 hPa 0,0 l/m 0,0 km/h (0 Bft) SW 225 0 min 0,0 UV-I 8,1 C 10,1 C 0,0 km/h (0 Bft)
15.06.2013 01:20 10,2 C 23,2 C 11,6 C 10,2 C 10,1 C 0,0 C 87 % 82 % 0 % 1017,9 hPa 0,0 l/m 0,0 km/h (0 Bft) S 180 0 min 0,0 UV-I 8,1 C 10,1 C 0,0 km/h (0 Bft)
15.06.2013 01:25 10,1 C 23,2 C 11,6 C 10,1 C 10,0 C 0,0 C 87 % 82 % 0 % 1017,9 hPa 0,0 l/m 0,0 km/h (0 Bft) W 270 0 min 0,0 UV-I 8,0 C 10,0 C 0,0 km/h (0 Bft)
15.06.2013 01:30 10,1 C 23,2 C 11,5 C 10,0 C 9,8 C 0,0 C 87 % 83 % 0 % 1017,9 hPa 0,0 l/m 0,0 km/h (0 Bft) W-SW 247 0 min 0,0 UV-I 8,0 C 9,8 C 0,0 km/h (0 Bft)
15.06.2013 01:35 10,0 C 23,2 C 11,5 C 9,9 C 9,7 C 0,0 C 87 % 83 % 0 % 1017,9 hPa 0,0 l/m 0,0 km/h (0 Bft) W 270 0 min 0,0 UV-I 7,9 C 9,7 C 0,0 km/h (0 Bft)
15.06.2013 01:40 9,8 C 23,2 C 11,5 C 9,7 C 9,6 C 0,0 C 87 % 83 % 0 % 1017,9 hPa 0,0 l/m 0,0 km/h (0 Bft) NW 315 0 min 0,0 UV-I 7,7 C 9,6 C 0,0 km/h (0 Bft)
15.06.2013 01:45 9,7 C 23,2 C 11,4 C 9,7 C 9,6 C 0,0 C 87 % 83 % 0 % 1017,9 hPa 0,0 l/m 0,0 km/h (0 Bft) W 270 0 min 0,0 UV-I 7,6 C 9,6 C 0,0 km/h (0 Bft)
15.06.2013 01:50 9,6 C 23,2 C 11,2 C 9,6 C 9,6 C 0,0 C 87 % 83 % 0 % 1017,9 hPa 0,0 l/m 0,0 km/h (0 Bft) W-NW 292 0 min 0,0 UV-I 7,5 C 9,6 C 0,0 km/h (0 Bft)
15.06.2013 01:55 9,6 C 23,2 C 11,3 C 9,7 C 9,7 C 0,1 C 87 % 83 % 0 % 1018,0 hPa 0,0 l/m 0,0 km/h (0 Bft) NW 315 0 min 0,0 UV-I 7,5 C 9,7 C 0,0 km/h (0 Bft)
15.06.2013 02:00 9,6 C 23,2 C 11,3 C 9,7 C 9,7 C 0,1 C 88 % 83 % 0 % 1018,0 hPa 0,0 l/m 0,0 km/h (0 Bft) N-NW 337 0 min 0,0 UV-I 7,7 C 9,7 C 0,0 km/h (0 Bft)
15.06.2013 02:05 9,6 C 23,2 C 11,3 C 9,7 C 9,7 C 0,1 C 88 % 83 % 0 % 1018,0 hPa 0,0 l/m 0,0 km/h (0 Bft) N-NW 337 0 min 0,0 UV-I 7,7 C 9,7 C 0,0 km/h (0 Bft)
15.06.2013 02:10 9,6 C 23,2 C 11,2 C 9,8 C 9,8 C 0,2 C 88 % 83 % 0 % 1018,0 hPa 0,0 l/m 0,0 km/h (0 Bft) N 360 0 min 0,0 UV-I 7,7 C 9,8 C 0,0 km/h (0 Bft)
15.06.2013 02:15 9,5 C 23,2 C 11,2 C 9,7 C 9,7 C 0,2 C 88 % 83 % 0 % 1017,9 hPa 0,0 l/m 0,0 km/h (0 Bft) W 270 0 min 0,0 UV-I 7,6 C 9,7 C 0,0 km/h (0 Bft)
15.06.2013 02:20 9,4 C 23,2 C 11,2 C 9,7 C 9,7 C 0,3 C 88 % 83 % 0 % 1017,9 hPa 0,0 l/m 0,0 km/h (0 Bft) W-SW 247 0 min 0,0 UV-I 7,5 C 9,7 C 0,0 km/h (0 Bft)
15.06.2013 02:25 9,5 C 23,2 C 11,1 C 9,5 C 9,5 C 0,0 C 88 % 83 % 0 % 1017,9 hPa 0,0 l/m 0,0 km/h (0 Bft) NO 45 0 min 0,0 UV-I 7,6 C 9,5 C 0,0 km/h (0 Bft)
15.06.2013 02:30 9,3 C 23,2 C 11,1 C 9,4 C 9,4 C 0,1 C 88 % 83 % 0 % 1017,9 hPa 0,0 l/m 0,0 km/h (0 Bft) NW 315 0 min 0,0 UV-I 7,4 C 9,4 C 0,0 km/h (0 Bft)
15.06.2013 02:35 9,2 C 23,2 C 11,1 C 9,3 C 9,3 C 0,1 C 88 % 83 % 0 % 1017,9 hPa 0,0 l/m 0,0 km/h (0 Bft) W-NW 292 0 min 0,0 UV-I 7,3 C 9,3 C 0,0 km/h (0 Bft)
15.06.2013 02:40 9,2 C 23,2 C 10,9 C 9,2 C 9,2 C 0,0 C 88 % 83 % 0 % 1017,9 hPa 0,0 l/m 0,0 km/h (0 Bft) N-NW 337 0 min 0,0 UV-I 7,3 C 9,2 C 0,0 km/h (0 Bft)
15.06.2013 02:45 9,1 C 23,2 C 10,9 C 9,2 C 9,2 C 0,1 C 88 % 83 % 0 % 1017,9 hPa 0,0 l/m 0,0 km/h (0 Bft) NW 315 0 min 0,0 UV-I 7,2 C 9,2 C 0,0 km/h (0 Bft)
15.06.2013 02:50 9,1 C 23,2 C 10,8 C 9,1 C 9,0 C 0,0 C 88 % 83 % 0 % 1017,9 hPa 0,0 l/m 0,0 km/h (0 Bft) N-NW 337 0 min 0,0 UV-I 7,2 C 9,0 C 0,0 km/h (0 Bft)
15.06.2013 02:55 9,1 C 23,2 C 10,9 C 9,1 C 9,0 C 0,0 C 88 % 83 % 0 % 1017,8 hPa 0,0 l/m 0,0 km/h (0 Bft) N 360 0 min 0,0 UV-I 7,2 C 9,0 C 0,0 km/h (0 Bft)
15.06.2013 03:00 9,0 C 23,2 C 10,7 C 9,0 C 9,0 C 0,0 C 88 % 83 % 0 % 1017,8 hPa 0,0 l/m 0,0 km/h (0 Bft) NO 45 0 min 0,0 UV-I 7,1 C 9,0 C 0,0 km/h (0 Bft)
15.06.2013 03:05 8,9 C 23,2 C 10,7 C 9,1 C 9,1 C 0,2 C 88 % 83 % 0 % 1017,8 hPa 0,0 l/m 0,0 km/h (0 Bft) N-NO 22 0 min 0,0 UV-I 7,0 C 9,1 C 0,0 km/h (0 Bft)
15.06.2013 03:10 8,9 C 23,2 C 10,7 C 8,9 C 8,9 C 0,0 C 88 % 83 % 0 % 1017,8 hPa 0,0 l/m 0,0 km/h (0 Bft) N 360 0 min 0,0 UV-I 7,0 C 8,9 C 0,0 km/h (0 Bft)
15.06.2013 03:15 8,9 C 23,2 C 10,7 C 8,9 C 8,8 C 0,0 C 88 % 83 % 0 % 1017,6 hPa 0,0 l/m 0,0 km/h (0 Bft) W-SW 247 0 min 0,0 UV-I 7,0 C 8,8 C 0,0 km/h (0 Bft)
15.06.2013 03:20 8,7 C 23,2 C 10,4 C 8,7 C 8,7 C 0,0 C 88 % 83 % 0 % 1017,6 hPa 0,0 l/m 0,0 km/h (0 Bft) W-NW 292 0 min 0,0 UV-I 6,8 C 8,7 C 0,0 km/h (0 Bft)
15.06.2013 03:25 8,6 C 23,0 C 10,4 C 8,7 C 8,7 C 0,1 C 88 % 83 % 0 % 1017,6 hPa 0,0 l/m 0,0 km/h (0 Bft) NW 315 0 min 0,0 UV-I 6,7 C 8,7 C 0,0 km/h (0 Bft)
15.06.2013 03:30 8,7 C 22,9 C 10,5 C 8,7 C 8,6 C 0,0 C 88 % 83 % 0 % 1017,6 hPa 0,0 l/m 0,0 km/h (0 Bft) NW 315 0 min 0,0 UV-I 6,8 C 8,6 C 0,0 km/h (0 Bft)
15.06.2013 03:35 8,6 C 22,9 C 10,4 C 8,6 C 8,6 C 0,0 C 88 % 83 % 0 % 1017,2 hPa 0,0 l/m 0,0 km/h (0 Bft) NW 315 0 min 0,0 UV-I 6,7 C 8,6 C 0,0 km/h (0 Bft)
15.06.2013 03:40 8,5 C 22,9 C 10,4 C 8,6 C 8,6 C 0,1 C 88 % 83 % 0 % 1017,2 hPa 0,0 l/m 0,0 km/h (0 Bft) N-NO 22 0 min 0,0 UV-I 6,6 C 8,6 C 0,0 km/h (0 Bft)
15.06.2013 03:45 8,4 C 22,9 C 10,3 C 8,6 C 8,6 C 0,2 C 88 % 83 % 0 % 1017,2 hPa 0,0 l/m 0,0 km/h (0 Bft) O-NO 67 0 min 0,0 UV-I 6,5 C 8,6 C 0,0 km/h (0 Bft)
15.06.2013 03:50 8,4 C 22,9 C 10,3 C 8,6 C 8,6 C 0,2 C 89 % 83 % 0 % 1017,2 hPa 0,0 l/m 0,0 km/h (0 Bft) O 90 0 min 0,0 UV-I 6,7 C 8,6 C 0,0 km/h (0 Bft)
15.06.2013 03:55 8,4 C 22,9 C 10,2 C 8,6 C 8,6 C 0,2 C 89 % 83 % 0 % 1017,2 hPa 0,0 l/m 0,0 km/h (0 Bft) W-SW 247 0 min 0,0 UV-I 6,7 C 8,6 C 0,0 km/h (0 Bft)
15.06.2013 04:00 8,4 C 22,9 C 10,3 C 8,5 C 8,5 C 0,1 C 89 % 83 % 0 % 1017,2 hPa 0,0 l/m 0,0 km/h (0 Bft) W 270 0 min 0,0 UV-I 6,7 C 8,5 C 0,0 km/h (0 Bft)
15.06.2013 04:05 8,3 C 22,9 C 10,1 C 8,3 C 8,3 C 0,0 C 89 % 83 % 0 % 1017,2 hPa 0,0 l/m 0,0 km/h (0 Bft) NW 315 0 min 0,0 UV-I 6,6 C 8,3 C 0,0 km/h (0 Bft)
15.06.2013 04:10 8,3 C 22,8 C 10,0 C 8,2 C 8,1 C 0,0 C 89 % 83 % 0 % 1017,2 hPa 0,0 l/m 0,0 km/h (0 Bft) W-SW 247 0 min 0,0 UV-I 6,6 C 8,1 C 0,0 km/h (0 Bft)
15.06.2013 04:15 8,1 C 22,8 C 9,9 C 8,1 C 8,1 C 0,0 C 89 % 83 % 0 % 1017,2 hPa 0,0 l/m 0,0 km/h (0 Bft) W-SW 247 0 min 0,0 UV-I 6,4 C 8,1 C 0,0 km/h (0 Bft)
15.06.2013 04:20 8,1 C 22,8 C 9,9 C 8,1 C 8,0 C 0,0 C 89 % 83 % 0 % 1017,2 hPa 0,0 l/m 0,0 km/h (0 Bft) N-NW 337 0 min 0,0 UV-I 6,4 C 8,0 C 0,0 km/h (0 Bft)
15.06.2013 04:25 8,1 C 22,8 C 9,8 C 8,1 C 8,1 C 0,0 C 89 % 83 % 0 % 1017,2 hPa 0,0 l/m 0,0 km/h (0 Bft) N-NW 337 0 min 0,0 UV-I 6,4 C 8,1 C 0,0 km/h (0 Bft)
15.06.2013 04:30 8,0 C 22,8 C 9,8 C 8,1 C 8,1 C 0,1 C 89 % 83 % 0 % 1017,2 hPa 0,0 l/m 0,0 km/h (0 Bft) N-NW 337 0 min 0,0 UV-I 6,3 C 8,1 C 0,0 km/h (0 Bft)
15.06.2013 04:35 8,0 C 22,8 C 9,9 C 8,0 C 8,0 C 0,0 C 89 % 84 % 0 % 1017,0 hPa 0,0 l/m 0,0 km/h (0 Bft) NW 315 0 min 0,0 UV-I 6,3 C 8,0 C 0,0 km/h (0 Bft)
15.06.2013 04:40 7,9 C 22,8 C 9,9 C 7,9 C 7,9 C 0,0 C 89 % 84 % 0 % 1017,0 hPa 0,0 l/m 0,0 km/h (0 Bft) NW 315 0 min 0,0 UV-I 6,2 C 7,9 C 0,0 km/h (0 Bft)
15.06.2013 04:45 7,9 C 22,8 C 9,7 C 7,9 C 7,8 C 0,0 C 89 % 83 % 0 % 1017,0 hPa 0,0 l/m 0,0 km/h (0 Bft) NW 315 0 min 0,0 UV-I 6,2 C 7,8 C 0,0 km/h (0 Bft)
15.06.2013 04:50 7,7 C 22,8 C 9,7 C 7,7 C 7,7 C 0,0 C 89 % 83 % 0 % 1017,0 hPa 0,0 l/m 0,0 km/h (0 Bft) W-SW 247 0 min 0,0 UV-I 6,0 C 7,7 C 0,0 km/h (0 Bft)
15.06.2013 04:55 7,7 C 22,7 C 9,6 C 7,7 C 7,7 C 0,0 C 89 % 83 % 0 % 1017,1 hPa 0,0 l/m 0,0 km/h (0 Bft) W 270 0 min 0,0 UV-I 6,0 C 7,7 C 0,0 km/h (0 Bft)
15.06.2013 05:00 7,6 C 22,7 C 9,5 C 7,6 C 7,6 C 0,0 C 88 % 83 % 0 % 1017,1 hPa 0,0 l/m 0,0 km/h (0 Bft) W 270 0 min 0,0 UV-I 5,7 C 7,6 C 0,0 km/h (0 Bft)
15.06.2013 05:05 7,5 C 22,7 C 9,4 C 7,5 C 7,5 C 0,0 C 89 % 83 % 0 % 1017,1 hPa 0,0 l/m 0,0 km/h (0 Bft) W-SW 247 0 min 0,0 UV-I 5,8 C 7,5 C 0,0 km/h (0 Bft)
15.06.2013 05:10 7,5 C 22,7 C 9,5 C 7,5 C 7,5 C 0,0 C 89 % 83 % 0 % 1017,1 hPa 0,0 l/m 0,0 km/h (0 Bft) W 270 0 min 0,0 UV-I 5,8 C 7,5 C 0,0 km/h (0 Bft)
15.06.2013 05:15 7,5 C 22,7 C 9,5 C 7,5 C 7,5 C 0,0 C 89 % 83 % 0 % 1017,1 hPa 0,0 l/m 0,0 km/h (0 Bft) W 270 0 min 0,0 UV-I 5,8 C 7,5 C 0,0 km/h (0 Bft)
15.06.2013 05:20 7,4 C 22,7 C 9,5 C 7,5 C 7,5 C 0,1 C 89 % 83 % 3 % 1017,1 hPa 0,0 l/m 0,0 km/h (0 Bft) W-SW 247 0 min 0,0 UV-I 5,7 C 7,5 C 0,0 km/h (0 Bft)
15.06.2013 05:25 7,4 C 22,7 C 9,5 C 7,5 C 7,5 C 0,1 C 89 % 84 % 3 % 1017,1 hPa 0,0 l/m 0,0 km/h (0 Bft) N-NW 337 0 min 0,0 UV-I 5,7 C 7,5 C 0,0 km/h (0 Bft)
15.06.2013 05:30 7,3 C 22,7 C 9,5 C 7,7 C 7,7 C 0,4 C 89 % 84 % 11 % 1017,1 hPa 0,0 l/m 0,0 km/h (0 Bft) NW 315 0 min 0,0 UV-I 5,6 C 7,7 C 0,0 km/h (0 Bft)
15.06.2013 05:35 7,3 C 22,7 C 9,5 C 7,7 C 7,7 C 0,4 C 89 % 84 % 11 % 1017,3 hPa 0,0 l/m 0,0 km/h (0 Bft) W 270 0 min 0,0 UV-I 5,6 C 7,7 C 0,0 km/h (0 Bft)
15.06.2013 05:40 7,3 C 22,6 C 9,5 C 7,8 C 7,8 C 0,5 C 89 % 84 % 13 % 1017,3 hPa 0,0 l/m 0,0 km/h (0 Bft) W-SW 247 0 min 0,0 UV-I 5,6 C 7,8 C 0,0 km/h (0 Bft)
15.06.2013 05:45 7,3 C 22,6 C 9,4 C 7,8 C 7,8 C 0,5 C 89 % 84 % 13 % 1017,3 hPa 0,0 l/m 0,0 km/h (0 Bft) W-SW 247 0 min 0,0 UV-I 5,6 C 7,8 C 0,0 km/h (0 Bft)
15.06.2013 05:50 7,3 C 22,6 C 9,5 C 7,8 C 7,8 C 0,5 C 89 % 84 % 13 % 1017,3 hPa 0,0 l/m 0,0 km/h (0 Bft) SW 225 0 min 0,0 UV-I 5,6 C 7,8 C 0,0 km/h (0 Bft)
15.06.2013 05:55 7,3 C 22,6 C 9,4 C 7,9 C 7,9 C 0,6 C 89 % 84 % 16 % 1016,8 hPa 0,0 l/m 0,0 km/h (0 Bft) W-SW 247 0 min 0,0 UV-I 5,6 C 7,9 C 0,0 km/h (0 Bft)
15.06.2013 06:00 7,3 C 22,6 C 9,4 C 8,0 C 8,0 C 0,7 C 89 % 84 % 18 % 1016,8 hPa 0,0 l/m 0,0 km/h (0 Bft) NW 315 0 min 0,0 UV-I 5,6 C 8,0 C 0,0 km/h (0 Bft)
15.06.2013 06:05 7,3 C 22,6 C 9,4 C 8,0 C 8,0 C 0,7 C 89 % 84 % 18 % 1016,8 hPa 0,0 l/m 0,0 km/h (0 Bft) NW 315 0 min 0,0 UV-I 5,6 C 8,0 C 0,0 km/h (0 Bft)
15.06.2013 06:10 7,4 C 22,6 C 9,7 C 8,4 C 8,4 C 1,0 C 90 % 84 % 26 % 1016,8 hPa 0,0 l/m 0,0 km/h (0 Bft) NW 315 0 min 0,0 UV-I 5,9 C 8,4 C 0,0 km/h (0 Bft)
15.06.2013 06:15 7,5 C 22,6 C 9,7 C 8,5 C 8,5 C 1,0 C 90 % 84 % 26 % 1016,7 hPa 0,0 l/m 0,0 km/h (0 Bft) W-SW 247 0 min 0,0 UV-I 6,0 C 8,5 C 0,0 km/h (0 Bft)
15.06.2013 06:20 7,5 C 22,5 C 9,9 C 8,5 C 8,5 C 1,0 C 90 % 84 % 26 % 1016,7 hPa 0,0 l/m 0,0 km/h (0 Bft) SW 225 0 min 0,0 UV-I 6,0 C 8,5 C 0,0 km/h (0 Bft)
15.06.2013 06:25 7,6 C 22,5 C 9,8 C 8,6 C 8,6 C 1,0 C 90 % 84 % 26 % 1016,7 hPa 0,0 l/m 0,0 km/h (0 Bft) W-SW 247 0 min 0,0 UV-I 6,1 C 8,6 C 0,0 km/h (0 Bft)
15.06.2013 06:30 7,7 C 22,5 C 9,8 C 8,6 C 8,6 C 0,9 C 90 % 84 % 24 % 1016,7 hPa 0,0 l/m 0,0 km/h (0 Bft) W-SW 247 0 min 0,0 UV-I 6,2 C 8,6 C 0,0 km/h (0 Bft)
15.06.2013 06:35 7,6 C 22,5 C 9,9 C 8,7 C 8,7 C 1,1 C 90 % 84 % 29 % 1016,4 hPa 0,0 l/m 0,0 km/h (0 Bft) N-NW 337 0 min 0,0 UV-I 6,1 C 8,7 C 0,0 km/h (0 Bft)
15.06.2013 06:42 7,7 C 22,5 C 9,9 C 8,9 C 8,9 C 1,2 C 90 % 84 % 32 % 1016,4 hPa 0,0 l/m 0,0 km/h (0 Bft) N 0 0 min 0,0 UV-I 6,2 C 8,9 C 0,0 km/h (0 Bft)
15.06.2013 07:05 8,5 C 22,5 C 10,9 C 10,6 C 10,6 C 2,1 C 91 % 84 % 55 % 1016,6 hPa 0,0 l/m 0,0 km/h (0 Bft) SW 225 0 min 0,2 UV-I 7,1 C 10,6 C 0,0 km/h (0 Bft)
15.06.2013 07:10 8,9 C 22,5 C 11,1 C 11,3 C 11,3 C 2,4 C 91 % 84 % 63 % 1016,6 hPa 0,0 l/m 0,0 km/h (0 Bft) W-NW 292 0 min 0,2 UV-I 7,5 C 11,3 C 0,0 km/h (0 Bft)
15.06.2013 07:15 9,1 C 22,5 C 11,3 C 11,8 C 11,8 C 2,7 C 92 % 83 % 71 % 1016,4 hPa 0,0 l/m 0,0 km/h (0 Bft) W-NW 292 0 min 0,2 UV-I 7,9 C 11,8 C 0,0 km/h (0 Bft)
15.06.2013 07:20 9,3 C 22,4 C 11,9 C 13,7 C 13,7 C 4,4 C 92 % 84 % 100 % 1016,4 hPa 0,0 l/m 0,0 km/h (0 Bft) N-NW 337 5 min 0,0 UV-I 8,1 C 13,7 C 0,0 km/h (0 Bft)
15.06.2013 07:25 9,7 C 22,3 C 12,4 C 16,1 C 16,1 C 6,4 C 92 % 83 % 100 % 1016,4 hPa 0,0 l/m 0,0 km/h (0 Bft) O-NO 67 5 min 0,0 UV-I 8,5 C 16,1 C 0,0 km/h (0 Bft)
15.06.2013 07:30 10,3 C 22,3 C 12,5 C 16,6 C 16,6 C 6,3 C 92 % 83 % 100 % 1016,4 hPa 0,0 l/m 0,2 km/h (0 Bft) NO 45 5 min 0,0 UV-I 9,1 C 16,6 C 0,0 km/h (0 Bft)
15.06.2013 07:35 10,3 C 22,3 C 12,4 C 16,2 C 16,2 C 5,9 C 92 % 83 % 100 % 1016,4 hPa 0,0 l/m 0,2 km/h (0 Bft) NO 45 5 min 0,0 UV-I 9,1 C 16,2 C 0,0 km/h (0 Bft)
15.06.2013 07:40 10,4 C 22,2 C 12,7 C 18,3 C 18,3 C 7,9 C 92 % 83 % 100 % 1016,4 hPa 0,0 l/m 0,0 km/h (0 Bft) NW 315 5 min 0,0 UV-I 9,2 C 18,3 C 0,0 km/h (0 Bft)
15.06.2013 07:45 10,9 C 22,1 C 12,8 C 19,1 C 19,1 C 8,2 C 92 % 83 % 100 % 1016,4 hPa 0,0 l/m 0,0 km/h (0 Bft) NO 45 5 min 0,0 UV-I 9,7 C 19,1 C 0,0 km/h (0 Bft)
15.06.2013 07:50 11,2 C 22,0 C 12,8 C 20,6 C 20,6 C 9,4 C 92 % 82 % 100 % 1016,4 hPa 0,0 l/m 0,0 km/h (0 Bft) SW 225 5 min 0,0 UV-I 9,9 C 20,6 C 0,0 km/h (0 Bft)
15.06.2013 07:55 11,5 C 22,0 C 12,9 C 20,6 C 20,6 C 9,1 C 92 % 82 % 100 % 1016,4 hPa 0,0 l/m 0,0 km/h (0 Bft) SW 225 5 min 0,0 UV-I 10,2 C 20,6 C 0,0 km/h (0 Bft)
15.06.2013 08:00 11,9 C 22,0 C 13,1 C 22,2 C 22,2 C 10,3 C 92 % 82 % 100 % 1016,4 hPa 0,0 l/m 0,0 km/h (0 Bft) N-NW 337 5 min 0,0 UV-I 10,6 C 22,2 C 0,0 km/h (0 Bft)
15.06.2013 08:05 12,3 C 21,9 C 13,2 C 23,0 C 23,0 C 10,7 C 93 % 82 % 100 % 1016,4 hPa 0,0 l/m 0,0 km/h (0 Bft) SW 225 5 min 0,0 UV-I 11,2 C 23,0 C 0,0 km/h (0 Bft)
15.06.2013 08:10 12,7 C 21,9 C 13,2 C 23,6 C 23,6 C 10,9 C 92 % 82 % 100 % 1016,4 hPa 0,0 l/m 0,2 km/h (0 Bft) SW 225 5 min 0,0 UV-I 11,4 C 23,6 C 1,9 km/h (1 Bft)
15.06.2013 08:15 12,8 C 21,9 C 13,5 C 24,0 C 24,0 C 11,2 C 91 % 82 % 100 % 1016,3 hPa 0,0 l/m 0,2 km/h (0 Bft) N 360 5 min 0,0 UV-I 11,4 C 24,0 C 0,0 km/h (0 Bft)
15.06.2013 08:20 13,3 C 21,9 C 13,6 C 24,9 C 24,9 C 11,6 C 90 % 82 % 100 % 1016,3 hPa 0,0 l/m 0,0 km/h (0 Bft) N-NW 337 5 min 0,0 UV-I 11,7 C 24,9 C 0,0 km/h (0 Bft)
15.06.2013 08:25 13,8 C 21,9 C 13,9 C 25,5 C 25,5 C 11,7 C 89 % 81 % 100 % 1016,3 hPa 0,0 l/m 0,0 km/h (0 Bft) S-SW 202 5 min 0,0 UV-I 12,0 C 25,5 C 0,0 km/h (0 Bft)
15.06.2013 08:30 14,4 C 21,9 C 14,1 C 26,1 C 26,1 C 11,7 C 87 % 81 % 100 % 1016,3 hPa 0,0 l/m 0,0 km/h (0 Bft) SW 225 5 min 0,0 UV-I 12,3 C 26,1 C 2,4 km/h (1 Bft)
15.06.2013 08:35 14,8 C 21,9 C 14,1 C 26,1 C 26,1 C 11,3 C 85 % 81 % 100 % 1016,6 hPa 0,0 l/m 0,3 km/h (0 Bft) W-NW 292 5 min 0,0 UV-I 12,3 C 26,1 C 0,0 km/h (0 Bft)
15.06.2013 08:40 15,6 C 21,9 C 14,1 C 26,6 C 26,6 C 11,0 C 84 % 81 % 100 % 1016,6 hPa 0,0 l/m 0,3 km/h (0 Bft) NW 315 5 min 0,0 UV-I 12,9 C 26,6 C 0,0 km/h (0 Bft)
15.06.2013 08:45 16,3 C 21,8 C 14,3 C 27,1 C 27,1 C 10,8 C 82 % 81 % 100 % 1016,6 hPa 0,0 l/m 0,0 km/h (0 Bft) NW 315 5 min 0,0 UV-I 13,2 C 27,1 C 0,0 km/h (0 Bft)
15.06.2013 08:50 16,7 C 21,8 C 14,3 C 27,8 C 27,8 C 11,1 C 80 % 81 % 100 % 1016,6 hPa 0,0 l/m 0,2 km/h (0 Bft) S 180 5 min 0,0 UV-I 13,2 C 27,8 C 0,0 km/h (0 Bft)
15.06.2013 08:55 16,9 C 21,8 C 14,4 C 28,0 C 28,0 C 11,1 C 79 % 81 % 100 % 1016,1 hPa 0,0 l/m 0,2 km/h (0 Bft) NW 315 5 min 0,0 UV-I 13,2 C 28,0 C 0,0 km/h (0 Bft)
15.06.2013 09:00 17,6 C 21,8 C 15,1 C 26,7 C 26,7 C 9,1 C 78 % 81 % 100 % 1016,1 hPa 0,0 l/m 1,1 km/h (1 Bft) W-SW 247 5 min 0,0 UV-I 13,7 C 26,7 C 4,8 km/h (1 Bft)
15.06.2013 09:05 17,8 C 21,8 C 15,1 C 27,0 C 27,0 C 9,2 C 77 % 81 % 100 % 1016,1 hPa 0,0 l/m 1,1 km/h (1 Bft) SW 225 5 min 0,0 UV-I 13,7 C 27,0 C 0,0 km/h (0 Bft)
15.06.2013 09:10 18,3 C 21,8 C 15,2 C 27,9 C 27,9 C 9,6 C 77 % 81 % 100 % 1016,1 hPa 0,0 l/m 0,6 km/h (0 Bft) S-SW 202 5 min 0,0 UV-I 14,2 C 27,9 C 2,1 km/h (1 Bft)
15.06.2013 09:15 18,5 C 21,9 C 15,5 C 28,3 C 28,3 C 9,8 C 76 % 81 % 100 % 1015,8 hPa 0,0 l/m 0,5 km/h (0 Bft) SW 225 5 min 0,0 UV-I 14,2 C 28,3 C 2,1 km/h (1 Bft)
15.06.2013 09:20 18,6 C 21,8 C 15,6 C 28,3 C 28,3 C 9,7 C 74 % 81 % 100 % 1015,8 hPa 0,0 l/m 1,0 km/h (0 Bft) SW 225 5 min 0,0 UV-I 13,9 C 28,3 C 2,7 km/h (1 Bft)
15.06.2013 09:25 18,6 C 21,9 C 15,6 C 28,0 C 28,0 C 9,4 C 74 % 81 % 100 % 1015,8 hPa 0,0 l/m 1,3 km/h (1 Bft) S 180 5 min 0,0 UV-I 13,9 C 28,0 C 4,5 km/h (1 Bft)
15.06.2013 09:30 18,7 C 21,9 C 15,7 C 27,9 C 27,9 C 9,2 C 75 % 81 % 100 % 1015,8 hPa 0,0 l/m 1,8 km/h (1 Bft) W 270 5 min 0,0 UV-I 14,2 C 27,9 C 2,1 km/h (1 Bft)
15.06.2013 09:35 18,8 C 21,8 C 15,9 C 28,4 C 28,4 C 9,6 C 75 % 81 % 100 % 1015,5 hPa 0,0 l/m 1,3 km/h (1 Bft) N 360 5 min 0,0 UV-I 14,3 C 28,4 C 0,0 km/h (0 Bft)
15.06.2013 09:40 19,2 C 21,8 C 16,3 C 28,7 C 28,7 C 9,5 C 72 % 80 % 100 % 1015,5 hPa 0,0 l/m 1,1 km/h (1 Bft) S-SO 157 5 min 0,0 UV-I 14,0 C 28,7 C 1,8 km/h (1 Bft)
15.06.2013 09:45 19,5 C 21,8 C 16,7 C 28,4 C 28,4 C 8,9 C 73 % 80 % 100 % 1015,5 hPa 0,0 l/m 0,8 km/h (0 Bft) W-NW 292 5 min 0,0 UV-I 14,5 C 28,4 C 0,0 km/h (0 Bft)
15.06.2013 09:50 19,9 C 21,8 C 17,1 C 29,2 C 29,2 C 9,3 C 70 % 80 % 100 % 1015,5 hPa 0,0 l/m 0,6 km/h (0 Bft) S-SO 157 5 min 0,0 UV-I 14,3 C 29,2 C 2,3 km/h (1 Bft)
15.06.2013 09:55 20,0 C 21,8 C 17,3 C 29,0 C 29,0 C 9,0 C 71 % 79 % 100 % 1015,4 hPa 0,0 l/m 0,6 km/h (0 Bft) NO 45 5 min 0,0 UV-I 14,6 C 29,0 C 2,9 km/h (1 Bft)
15.06.2013 10:00 20,3 C 21,8 C 17,9 C 27,0 C 27,0 C 6,7 C 68 % 78 % 100 % 1015,4 hPa 0,0 l/m 1,4 km/h (1 Bft) O-NO 67 5 min 0,0 UV-I 14,2 C 27,0 C 8,2 km/h (2 Bft)
15.06.2013 10:05 20,4 C 21,8 C 18,3 C 26,5 C 26,5 C 6,1 C 68 % 77 % 100 % 1015,4 hPa 0,0 l/m 2,1 km/h (1 Bft) O-NO 67 5 min 0,0 UV-I 14,3 C 26,5 C 4,2 km/h (1 Bft)
15.06.2013 10:10 20,5 C 21,8 C 18,0 C 27,1 C 27,1 C 6,6 C 67 % 77 % 100 % 1015,4 hPa 0,0 l/m 1,8 km/h (1 Bft) NO 45 5 min 0,0 UV-I 14,2 C 27,1 C 9,0 km/h (2 Bft)
15.06.2013 10:15 20,6 C 21,9 C 18,4 C 27,0 C 27,0 C 6,4 C 64 % 76 % 100 % 1015,1 hPa 0,0 l/m 2,4 km/h (1 Bft) O-SO 112 5 min 0,0 UV-I 13,5 C 27,0 C 6,1 km/h (2 Bft)
15.06.2013 10:20 20,5 C 21,9 C 18,6 C 25,5 C 25,5 C 5,0 C 66 % 75 % 100 % 1015,1 hPa 0,0 l/m 3,4 km/h (1 Bft) SO 135 5 min 0,0 UV-I 13,9 C 25,5 C 10,5 km/h (2 Bft)
15.06.2013 10:25 20,6 C 21,9 C 18,7 C 25,0 C 25,0 C 4,4 C 66 % 75 % 100 % 1015,1 hPa 0,0 l/m 3,2 km/h (1 Bft) NO 45 5 min 0,0 UV-I 14,0 C 25,0 C 5,5 km/h (1 Bft)
15.06.2013 10:30 20,7 C 21,9 C 19,1 C 24,8 C 24,8 C 4,1 C 66 % 75 % 100 % 1015,1 hPa 0,0 l/m 3,1 km/h (1 Bft) O-NO 67 5 min 0,0 UV-I 14,1 C 24,8 C 2,7 km/h (1 Bft)
15.06.2013 10:35 20,8 C 21,9 C 19,1 C 24,5 C 24,5 C 3,7 C 65 % 75 % 97 % 1014,8 hPa 0,0 l/m 2,7 km/h (1 Bft) S 180 5 min 0,0 UV-I 14,0 C 24,5 C 3,1 km/h (1 Bft)
15.06.2013 10:40 20,8 C 21,9 C 19,3 C 24,3 C 24,3 C 3,5 C 66 % 74 % 92 % 1014,8 hPa 0,0 l/m 2,1 km/h (1 Bft) S 180 5 min 0,0 UV-I 14,2 C 24,3 C 1,8 km/h (1 Bft)
15.06.2013 10:45 21,1 C 21,9 C 19,3 C 25,1 C 25,1 C 4,0 C 67 % 73 % 100 % 1014,8 hPa 0,0 l/m 1,8 km/h (1 Bft) SW 225 5 min 0,0 UV-I 14,7 C 25,1 C 3,4 km/h (1 Bft)
15.06.2013 10:50 21,5 C 21,9 C 19,6 C 26,5 C 26,5 C 5,0 C 66 % 74 % 100 % 1014,8 hPa 0,0 l/m 1,1 km/h (1 Bft) S-SO 157 5 min 0,0 UV-I 14,9 C 26,5 C 2,4 km/h (1 Bft)
15.06.2013 10:55 21,7 C 21,9 C 19,7 C 26,7 C 26,7 C 5,0 C 65 % 74 % 100 % 1015,0 hPa 0,0 l/m 1,0 km/h (0 Bft) W-SW 247 5 min 0,0 UV-I 14,8 C 26,7 C 0,0 km/h (0 Bft)
15.06.2013 11:00 22,0 C 22,0 C 19,7 C 25,9 C 25,9 C 3,9 C 63 % 73 % 100 % 1015,0 hPa 0,0 l/m 0,6 km/h (0 Bft) O-NO 67 5 min 0,0 UV-I 14,6 C 25,9 C 0,0 km/h (0 Bft)
15.06.2013 11:05 21,6 C 22,0 C 19,6 C 25,0 C 25,0 C 3,4 C 61 % 73 % 89 % 1015,0 hPa 0,0 l/m 1,8 km/h (1 Bft) O-NO 67 5 min 0,0 UV-I 13,7 C 25,0 C 8,4 km/h (2 Bft)
15.06.2013 11:10 21,2 C 22,0 C 19,5 C 23,9 C 23,9 C 2,7 C 64 % 73 % 71 % 1015,0 hPa 0,0 l/m 2,1 km/h (1 Bft) N-NW 337 0 min 0,0 UV-I 14,1 C 23,9 C 0,0 km/h (0 Bft)
15.06.2013 11:15 21,2 C 22,0 C 19,5 C 23,6 C 23,6 C 2,4 C 65 % 73 % 63 % 1014,9 hPa 0,0 l/m 1,0 km/h (0 Bft) O-NO 67 0 min 0,0 UV-I 14,4 C 23,6 C 0,0 km/h (0 Bft)
15.06.2013 11:20 21,2 C 22,0 C 19,6 C 23,7 C 23,7 C 2,5 C 65 % 73 % 66 % 1014,9 hPa 0,0 l/m 0,2 km/h (0 Bft) SO 135 0 min 0,0 UV-I 14,4 C 23,7 C 0,0 km/h (0 Bft)
15.06.2013 11:25 21,2 C 22,0 C 19,7 C 23,9 C 23,9 C 2,7 C 65 % 73 % 71 % 1014,9 hPa 0,0 l/m 0,8 km/h (0 Bft) N-NO 22 0 min 0,0 UV-I 14,4 C 23,9 C 0,0 km/h (0 Bft)
15.06.2013 11:30 21,5 C 22,0 C 20,0 C 26,0 C 26,0 C 4,5 C 65 % 73 % 100 % 1014,9 hPa 0,0 l/m 1,1 km/h (1 Bft) W-SW 247 5 min 0,0 UV-I 14,6 C 26,0 C 4,5 km/h (1 Bft)
15.06.2013 11:35 21,6 C 22,1 C 20,0 C 27,3 C 27,3 C 5,7 C 65 % 74 % 100 % 1014,4 hPa 0,0 l/m 1,8 km/h (1 Bft) W 270 5 min 0,0 UV-I 14,7 C 27,3 C 4,8 km/h (1 Bft)
15.06.2013 11:40 21,7 C 22,0 C 20,0 C 28,1 C 28,1 C 6,4 C 64 % 73 % 100 % 1014,4 hPa 0,0 l/m 3,2 km/h (1 Bft) SW 225 5 min 0,0 UV-I 14,6 C 28,1 C 3,9 km/h (1 Bft)
15.06.2013 11:45 21,7 C 22,0 C 20,1 C 28,3 C 28,3 C 6,6 C 65 % 72 % 100 % 1014,4 hPa 0,0 l/m 2,7 km/h (1 Bft) SW 225 5 min 0,0 UV-I 14,8 C 28,3 C 4,2 km/h (1 Bft)
15.06.2013 11:50 22,1 C 22,0 C 20,3 C 28,8 C 28,8 C 6,7 C 66 % 73 % 100 % 1014,4 hPa 0,0 l/m 2,4 km/h (1 Bft) W-NW 292 5 min 0,0 UV-I 15,4 C 28,8 C 0,0 km/h (0 Bft)
15.06.2013 11:55 22,4 C 22,0 C 20,4 C 29,6 C 29,6 C 7,2 C 64 % 73 % 100 % 1014,2 hPa 0,0 l/m 1,6 km/h (1 Bft) NW 315 5 min 0,0 UV-I 15,2 C 29,6 C 2,6 km/h (1 Bft)
15.06.2013 12:00 22,7 C 22,0 C 20,5 C 29,1 C 29,1 C 6,4 C 62 % 72 % 100 % 1014,2 hPa 0,0 l/m 2,3 km/h (1 Bft) W-SW 247 5 min 0,0 UV-I 15,0 C 29,1 C 3,2 km/h (1 Bft)
15.06.2013 12:05 22,7 C 22,0 C 20,5 C 28,8 C 28,8 C 6,1 C 62 % 72 % 100 % 1014,2 hPa 0,0 l/m 2,1 km/h (1 Bft) SO 135 5 min 0,0 UV-I 15,0 C 28,8 C 0,0 km/h (0 Bft)
15.06.2013 12:10 23,1 C 22,1 C 20,7 C 29,0 C 29,0 C 5,9 C 62 % 71 % 100 % 1014,2 hPa 0,0 l/m 1,8 km/h (1 Bft) S-SW 202 5 min 0,0 UV-I 15,4 C 29,0 C 2,6 km/h (1 Bft)
15.06.2013 12:15 23,1 C 22,1 C 20,7 C 28,3 C 28,3 C 5,2 C 61 % 71 % 100 % 1014,1 hPa 0,0 l/m 2,1 km/h (1 Bft) W-SW 247 5 min 0,0 UV-I 15,2 C 28,3 C 7,2 km/h (2 Bft)
15.06.2013 12:20 23,3 C 22,1 C 20,7 C 28,2 C 28,2 C 4,9 C 61 % 71 % 100 % 1014,1 hPa 0,0 l/m 1,6 km/h (1 Bft) NW 315 5 min 0,0 UV-I 15,3 C 28,2 C 0,0 km/h (0 Bft)
15.06.2013 12:25 23,5 C 22,1 C 20,9 C 28,7 C 28,7 C 5,2 C 59 % 71 % 100 % 1014,1 hPa 0,0 l/m 1,9 km/h (1 Bft) W-SW 247 5 min 0,0 UV-I 15,0 C 28,7 C 5,0 km/h (1 Bft)
15.06.2013 12:30 23,7 C 22,1 C 21,0 C 28,8 C 28,8 C 5,1 C 58 % 70 % 100 % 1014,1 hPa 0,0 l/m 1,9 km/h (1 Bft) O-SO 112 5 min 0,0 UV-I 14,9 C 28,8 C 2,4 km/h (1 Bft)
15.06.2013 12:35 23,7 C 22,1 C 21,1 C 28,5 C 28,5 C 4,8 C 58 % 69 % 100 % 1013,8 hPa 0,0 l/m 2,1 km/h (1 Bft) SO 135 5 min 0,0 UV-I 14,9 C 28,5 C 2,4 km/h (1 Bft)
15.06.2013 12:41 23,9 C 22,2 C 21,1 C 28,5 C 28,5 C 4,6 C 57 % 69 % 100 % 1013,8 hPa 0,0 l/m 1,6 km/h (1 Bft) N 0 6 min 0,0 UV-I 14,9 C 28,5 C 4,5 km/h (1 Bft)
15.06.2013 13:00 23,6 C 22,2 C 21,3 C 27,6 C 27,6 C 4,0 C 59 % 69 % 100 % 1013,6 hPa 0,0 l/m 1,3 km/h (1 Bft) SW 225 19 min 0,0 UV-I 15,1 C 27,6 C 0,0 km/h (0 Bft)
15.06.2013 13:05 23,7 C 22,2 C 21,6 C 27,9 C 27,9 C 4,2 C 57 % 70 % 100 % 1013,6 hPa 0,0 l/m 2,3 km/h (1 Bft) W 270 5 min 0,0 UV-I 14,7 C 27,9 C 6,6 km/h (2 Bft)
15.06.2013 13:10 23,8 C 22,3 C 21,5 C 27,7 C 27,7 C 3,9 C 57 % 69 % 100 % 1013,6 hPa 0,0 l/m 2,6 km/h (1 Bft) S-SO 157 5 min 0,0 UV-I 14,8 C 27,7 C 3,2 km/h (1 Bft)
15.06.2013 13:15 23,8 C 22,3 C 21,6 C 27,7 C 27,7 C 3,9 C 58 % 69 % 100 % 1013,6 hPa 0,0 l/m 2,7 km/h (1 Bft) NW 315 5 min 0,0 UV-I 15,0 C 27,7 C 4,8 km/h (1 Bft)
15.06.2013 13:20 24,1 C 22,3 C 21,6 C 28,3 C 28,3 C 4,2 C 57 % 68 % 100 % 1013,6 hPa 0,0 l/m 3,1 km/h (1 Bft) W 270 5 min 0,0 UV-I 15,0 C 28,3 C 10,9 km/h (2 Bft)
15.06.2013 13:25 24,0 C 22,3 C 21,6 C 28,2 C 28,2 C 4,2 C 56 % 69 % 100 % 1013,6 hPa 0,0 l/m 4,2 km/h (1 Bft) S 180 5 min 0,0 UV-I 14,7 C 28,2 C 11,7 km/h (2 Bft)
15.06.2013 13:30 23,8 C 22,3 C 21,5 C 27,4 C 27,4 C 3,6 C 55 % 68 % 95 % 1013,6 hPa 0,0 l/m 3,7 km/h (1 Bft) SO 135 5 min 0,0 UV-I 14,2 C 27,4 C 16,3 km/h (3 Bft)
15.06.2013 13:35 23,7 C 22,3 C 21,4 C 27,0 C 27,0 C 3,3 C 56 % 67 % 87 % 1013,3 hPa 0,0 l/m 3,4 km/h (1 Bft) SW 225 5 min 0,0 UV-I 14,4 C 27,0 C 8,9 km/h (2 Bft)
15.06.2013 13:40 23,6 C 22,4 C 21,6 C 26,8 C 26,8 C 3,2 C 57 % 69 % 84 % 1013,3 hPa 0,0 l/m 2,9 km/h (1 Bft) S 180 0 min 0,0 UV-I 14,6 C 26,8 C 2,7 km/h (1 Bft)
15.06.2013 13:45 23,7 C 22,4 C 21,8 C 27,3 C 27,3 C 3,6 C 56 % 65 % 95 % 1013,3 hPa 0,0 l/m 3,2 km/h (1 Bft) SO 135 5 min 0,0 UV-I 14,4 C 27,3 C 9,7 km/h (2 Bft)
15.06.2013 13:50 23,5 C 22,4 C 21,7 C 27,0 C 27,0 C 3,5 C 56 % 65 % 92 % 1013,3 hPa 0,0 l/m 3,5 km/h (1 Bft) SO 135 5 min 0,0 UV-I 14,2 C 27,0 C 2,4 km/h (1 Bft)
15.06.2013 13:55 23,3 C 22,4 C 21,7 C 26,7 C 26,7 C 3,4 C 56 % 67 % 89 % 1013,9 hPa 0,0 l/m 3,9 km/h (1 Bft) S 180 5 min 0,0 UV-I 14,0 C 26,7 C 4,8 km/h (1 Bft)
15.06.2013 14:00 23,5 C 22,4 C 21,9 C 27,2 C 27,2 C 3,7 C 53 % 64 % 97 % 1013,9 hPa 0,0 l/m 3,7 km/h (1 Bft) N-NO 22 5 min 0,0 UV-I 13,4 C 27,2 C 18,5 km/h (3 Bft)
15.06.2013 14:05 23,3 C 22,4 C 21,7 C 26,5 C 26,5 C 3,2 C 55 % 63 % 84 % 1013,9 hPa 0,0 l/m 3,9 km/h (1 Bft) NW 315 0 min 0,0 UV-I 13,7 C 26,5 C 0,0 km/h (0 Bft)
15.06.2013 14:10 23,4 C 22,4 C 21,7 C 26,8 C 26,8 C 3,4 C 55 % 65 % 89 % 1013,9 hPa 0,0 l/m 3,9 km/h (1 Bft) W 270 5 min 0,0 UV-I 13,8 C 26,8 C 3,9 km/h (1 Bft)
15.06.2013 14:15 23,5 C 22,5 C 21,7 C 26,7 C 26,7 C 3,2 C 56 % 68 % 84 % 1013,2 hPa 0,0 l/m 3,9 km/h (1 Bft) S 180 0 min 0,0 UV-I 14,2 C 26,7 C 7,2 km/h (2 Bft)
15.06.2013 14:20 23,5 C 22,5 C 21,9 C 26,7 C 26,7 C 3,2 C 57 % 68 % 84 % 1013,2 hPa 0,0 l/m 4,0 km/h (1 Bft) O 90 0 min 0,0 UV-I 14,5 C 26,7 C 6,3 km/h (2 Bft)
15.06.2013 14:25 23,5 C 22,5 C 21,9 C 26,8 C 26,8 C 3,3 C 58 % 67 % 87 % 1013,2 hPa 0,0 l/m 3,4 km/h (1 Bft) NW 315 5 min 0,0 UV-I 14,7 C 26,8 C 0,0 km/h (0 Bft)
15.06.2013 14:30 23,7 C 22,5 C 22,0 C 27,0 C 27,0 C 3,3 C 58 % 68 % 87 % 1013,2 hPa 0,0 l/m 2,1 km/h (1 Bft) W-SW 247 5 min 0,0 UV-I 14,9 C 27,0 C 5,3 km/h (1 Bft)
15.06.2013 14:35 23,7 C 22,5 C 21,9 C 27,1 C 27,1 C 3,4 C 56 % 64 % 89 % 1013,2 hPa 0,0 l/m 2,3 km/h (1 Bft) S 180 5 min 0,0 UV-I 14,4 C 27,1 C 2,3 km/h (1 Bft)
15.06.2013 14:40 23,6 C 22,5 C 22,1 C 27,2 C 27,2 C 3,6 C 56 % 63 % 95 % 1013,2 hPa 0,0 l/m 3,4 km/h (1 Bft) S-SO 157 5 min 0,0 UV-I 14,3 C 27,2 C 3,2 km/h (1 Bft)
15.06.2013 14:45 23,6 C 22,5 C 22,0 C 27,0 C 27,0 C 3,4 C 55 % 61 % 89 % 1013,2 hPa 0,0 l/m 3,1 km/h (1 Bft) S-SW 202 5 min 0,0 UV-I 14,0 C 27,0 C 2,6 km/h (1 Bft)
15.06.2013 14:50 23,5 C 22,5 C 22,0 C 26,7 C 26,7 C 3,2 C 55 % 63 % 84 % 1013,2 hPa 0,0 l/m 2,6 km/h (1 Bft) O-SO 112 0 min 0,0 UV-I 13,9 C 26,7 C 3,9 km/h (1 Bft)
15.06.2013 14:55 23,5 C 22,5 C 22,0 C 26,7 C 26,7 C 3,2 C 57 % 65 % 84 % 1013,1 hPa 0,0 l/m 2,1 km/h (1 Bft) W-SW 247 0 min 0,0 UV-I 14,5 C 26,7 C 6,1 km/h (2 Bft)
15.06.2013 15:00 23,5 C 22,5 C 22,0 C 26,6 C 26,6 C 3,1 C 55 % 65 % 82 % 1013,1 hPa 0,0 l/m 3,9 km/h (1 Bft) W-SW 247 0 min 0,0 UV-I 13,9 C 26,6 C 5,6 km/h (1 Bft)
15.06.2013 15:05 23,4 C 22,5 C 21,9 C 26,4 C 26,4 C 3,0 C 56 % 66 % 79 % 1013,1 hPa 0,0 l/m 5,0 km/h (1 Bft) O 90 0 min 0,0 UV-I 14,1 C 26,4 C 2,3 km/h (1 Bft)
15.06.2013 15:10 23,7 C 22,5 C 22,1 C 26,8 C 26,8 C 3,1 C 57 % 68 % 82 % 1013,1 hPa 0,0 l/m 4,8 km/h (1 Bft) N-NW 337 0 min 0,0 UV-I 14,7 C 26,8 C 15,8 km/h (3 Bft)
15.06.2013 15:15 23,5 C 22,5 C 21,9 C 26,5 C 26,5 C 3,0 C 55 % 67 % 79 % 1012,9 hPa 0,0 l/m 5,1 km/h (1 Bft) W-SW 247 0 min 0,0 UV-I 13,9 C 26,5 C 4,8 km/h (1 Bft)
15.06.2013 15:20 23,5 C 22,5 C 21,9 C 26,1 C 26,1 C 2,6 C 56 % 67 % 68 % 1012,9 hPa 0,0 l/m 6,4 km/h (2 Bft) SW 225 0 min 0,0 UV-I 14,2 C 26,1 C 13,0 km/h (3 Bft)
15.06.2013 15:25 23,4 C 22,6 C 21,9 C 25,8 C 25,8 C 2,4 C 56 % 66 % 63 % 1012,9 hPa 0,0 l/m 6,3 km/h (2 Bft) SO 135 0 min 0,0 UV-I 14,1 C 25,8 C 4,5 km/h (1 Bft)
15.06.2013 15:30 23,5 C 22,6 C 22,1 C 26,1 C 26,1 C 2,6 C 56 % 67 % 68 % 1012,9 hPa 0,0 l/m 5,8 km/h (2 Bft) SO 135 0 min 0,0 UV-I 14,2 C 26,1 C 6,8 km/h (2 Bft)
15.06.2013 15:35 23,5 C 22,6 C 22,0 C 26,2 C 26,2 C 2,7 C 56 % 67 % 71 % 1012,9 hPa 0,0 l/m 5,5 km/h (1 Bft) SW 225 0 min 0,0 UV-I 14,2 C 26,2 C 10,1 km/h (2 Bft)
15.06.2013 15:40 23,5 C 22,6 C 21,9 C 25,8 C 25,8 C 2,3 C 55 % 66 % 61 % 1012,9 hPa 0,0 l/m 6,6 km/h (2 Bft) S-SW 202 0 min 0,0 UV-I 13,9 C 25,8 C 7,2 km/h (2 Bft)
15.06.2013 15:45 23,5 C 22,6 C 22,0 C 26,0 C 26,0 C 2,5 C 57 % 67 % 66 % 1012,9 hPa 0,0 l/m 6,3 km/h (2 Bft) SW 225 0 min 0,0 UV-I 14,5 C 26,0 C 5,3 km/h (1 Bft)
15.06.2013 15:50 23,8 C 22,6 C 22,3 C 27,0 C 27,0 C 3,2 C 56 % 64 % 84 % 1012,9 hPa 0,0 l/m 4,3 km/h (1 Bft) W-SW 247 0 min 0,0 UV-I 14,5 C 27,0 C 12,4 km/h (3 Bft)
15.06.2013 15:55 23,8 C 22,7 C 22,4 C 27,3 C 27,3 C 3,5 C 56 % 65 % 92 % 1012,8 hPa 0,0 l/m 4,5 km/h (1 Bft) O-SO 112 5 min 0,0 UV-I 14,5 C 27,3 C 8,7 km/h (2 Bft)
15.06.2013 16:00 23,9 C 22,7 C 22,4 C 27,2 C 27,2 C 3,3 C 56 % 65 % 87 % 1012,8 hPa 0,0 l/m 6,1 km/h (2 Bft) W 270 5 min 0,0 UV-I 14,6 C 27,2 C 7,9 km/h (2 Bft)
15.06.2013 16:05 23,8 C 22,7 C 22,4 C 27,1 C 27,1 C 3,3 C 56 % 64 % 87 % 1012,8 hPa 0,0 l/m 5,1 km/h (1 Bft) SW 225 5 min 0,0 UV-I 14,5 C 27,1 C 3,7 km/h (1 Bft)
15.06.2013 16:10 23,9 C 22,7 C 22,3 C 26,7 C 26,7 C 2,8 C 55 % 66 % 74 % 1012,8 hPa 0,0 l/m 3,9 km/h (1 Bft) NW 315 0 min 0,0 UV-I 14,3 C 26,7 C 4,2 km/h (1 Bft)
15.06.2013 16:15 23,6 C 22,7 C 22,1 C 26,1 C 26,1 C 2,5 C 56 % 66 % 66 % 1012,7 hPa 0,0 l/m 4,0 km/h (1 Bft) W-SW 247 0 min 0,0 UV-I 14,3 C 26,1 C 17,7 km/h (3 Bft)
15.06.2013 16:20 23,5 C 22,7 C 22,1 C 25,3 C 25,3 C 1,8 C 55 % 63 % 47 % 1012,7 hPa 0,0 l/m 4,3 km/h (1 Bft) SO 135 0 min 0,0 UV-I 13,9 C 25,3 C 7,1 km/h (2 Bft)
15.06.2013 16:25 23,3 C 22,7 C 22,0 C 25,3 C 25,3 C 2,0 C 55 % 64 % 53 % 1012,7 hPa 0,0 l/m 4,5 km/h (1 Bft) SO 135 0 min 0,0 UV-I 13,7 C 25,3 C 8,7 km/h (2 Bft)
15.06.2013 16:30 23,4 C 22,7 C 22,0 C 25,5 C 25,5 C 2,1 C 58 % 67 % 55 % 1012,7 hPa 0,0 l/m 4,0 km/h (1 Bft) SW 225 0 min 0,0 UV-I 14,7 C 25,5 C 10,9 km/h (2 Bft)
15.06.2013 16:35 23,4 C 22,7 C 22,1 C 25,6 C 25,6 C 2,2 C 55 % 66 % 58 % 1012,5 hPa 0,0 l/m 5,5 km/h (1 Bft) W-SW 247 0 min 0,0 UV-I 13,8 C 25,6 C 9,8 km/h (2 Bft)
15.06.2013 16:40 23,5 C 22,8 C 22,0 C 25,7 C 25,7 C 2,2 C 57 % 66 % 58 % 1012,5 hPa 0,0 l/m 4,8 km/h (1 Bft) SW 225 0 min 0,0 UV-I 14,5 C 25,7 C 0,0 km/h (0 Bft)
15.06.2013 16:45 23,6 C 22,8 C 22,2 C 26,4 C 26,4 C 2,8 C 57 % 69 % 74 % 1012,5 hPa 0,0 l/m 3,9 km/h (1 Bft) W 270 0 min 0,0 UV-I 14,6 C 26,4 C 5,8 km/h (2 Bft)
15.06.2013 16:50 23,8 C 22,8 C 22,3 C 26,6 C 26,6 C 2,8 C 56 % 69 % 74 % 1012,5 hPa 0,0 l/m 4,0 km/h (1 Bft) S-SW 202 0 min 0,0 UV-I 14,5 C 26,6 C 6,4 km/h (2 Bft)
15.06.2013 16:55 23,9 C 22,8 C 22,1 C 26,3 C 26,3 C 2,4 C 57 % 68 % 63 % 1012,5 hPa 0,0 l/m 4,7 km/h (1 Bft) W-SW 247 0 min 0,0 UV-I 14,9 C 26,3 C 6,3 km/h (2 Bft)
15.06.2013 17:00 23,8 C 22,8 C 22,3 C 26,3 C 26,3 C 2,5 C 57 % 69 % 66 % 1012,5 hPa 0,0 l/m 4,3 km/h (1 Bft) W-SW 247 0 min 0,0 UV-I 14,8 C 26,3 C 4,3 km/h (1 Bft)
15.06.2013 17:05 23,9 C 22,8 C 22,4 C 26,7 C 26,7 C 2,8 C 55 % 67 % 74 % 1012,5 hPa 0,0 l/m 5,3 km/h (1 Bft) W 270 0 min 0,0 UV-I 14,3 C 26,7 C 8,9 km/h (2 Bft)
15.06.2013 17:10 24,1 C 22,8 C 22,5 C 27,2 C 27,2 C 3,1 C 56 % 67 % 82 % 1012,5 hPa 0,0 l/m 6,3 km/h (2 Bft) S 180 0 min 0,0 UV-I 14,8 C 27,2 C 7,9 km/h (2 Bft)
15.06.2013 17:15 24,0 C 22,8 C 22,3 C 26,8 C 26,8 C 2,8 C 54 % 63 % 74 % 1012,6 hPa 0,0 l/m 6,4 km/h (2 Bft) S 180 0 min 0,0 UV-I 14,1 C 26,8 C 16,9 km/h (3 Bft)
15.06.2013 17:20 23,7 C 22,9 C 22,3 C 26,4 C 26,4 C 2,7 C 53 % 64 % 71 % 1012,6 hPa 0,0 l/m 7,4 km/h (2 Bft) W-SW 247 0 min 0,0 UV-I 13,5 C 26,4 C 10,0 km/h (2 Bft)
15.06.2013 17:25 23,7 C 22,9 C 22,3 C 26,4 C 26,4 C 2,7 C 54 % 66 % 71 % 1012,6 hPa 0,0 l/m 7,6 km/h (2 Bft) S-SW 202 0 min 0,0 UV-I 13,8 C 26,4 C 8,0 km/h (2 Bft)
15.06.2013 17:30 23,7 C 22,9 C 21,9 C 25,7 C 25,7 C 2,0 C 53 % 65 % 53 % 1012,6 hPa 0,0 l/m 6,3 km/h (2 Bft) SW 225 0 min 0,0 UV-I 13,5 C 25,7 C 11,3 km/h (2 Bft)
15.06.2013 17:35 23,3 C 22,9 C 21,7 C 24,7 C 24,7 C 1,4 C 53 % 64 % 37 % 1012,8 hPa 0,0 l/m 6,6 km/h (2 Bft) W 270 0 min 0,0 UV-I 13,2 C 24,7 C 8,4 km/h (2 Bft)
15.06.2013 17:40 23,0 C 23,0 C 21,5 C 24,0 C 24,0 C 1,0 C 55 % 66 % 26 % 1012,8 hPa 0,0 l/m 7,4 km/h (2 Bft) W-SW 247 0 min 0,0 UV-I 13,5 C 24,0 C 12,2 km/h (2 Bft)
15.06.2013 17:45 22,9 C 23,0 C 21,6 C 24,0 C 24,0 C 1,1 C 55 % 66 % 29 % 1012,8 hPa 0,0 l/m 6,8 km/h (2 Bft) W-NW 292 0 min 0,0 UV-I 13,4 C 24,0 C 12,4 km/h (3 Bft)
15.06.2013 17:50 23,1 C 23,0 C 21,7 C 24,7 C 24,7 C 1,6 C 56 % 67 % 42 % 1012,8 hPa 0,0 l/m 6,4 km/h (2 Bft) SW 225 0 min 0,0 UV-I 13,8 C 24,7 C 8,2 km/h (2 Bft)
15.06.2013 17:55 23,1 C 23,0 C 21,6 C 24,8 C 24,8 C 1,7 C 56 % 67 % 45 % 1012,7 hPa 0,0 l/m 6,6 km/h (2 Bft) O-NO 67 0 min 0,0 UV-I 13,8 C 24,8 C 5,1 km/h (1 Bft)
15.06.2013 18:00 22,8 C 23,0 C 21,5 C 24,5 C 24,5 C 1,7 C 56 % 67 % 45 % 1012,7 hPa 0,0 l/m 7,1 km/h (2 Bft) W-SW 247 0 min 0,0 UV-I 13,6 C 24,5 C 20,1 km/h (4 Bft)
15.06.2013 18:05 22,7 C 23,0 C 21,3 C 24,0 C 24,0 C 1,3 C 58 % 68 % 34 % 1012,7 hPa 0,0 l/m 6,4 km/h (2 Bft) S-SO 157 0 min 0,0 UV-I 14,0 C 24,0 C 6,4 km/h (2 Bft)
15.06.2013 18:10 22,5 C 23,0 C 21,1 C 23,5 C 23,5 C 1,0 C 57 % 67 % 26 % 1012,7 hPa 0,0 l/m 6,0 km/h (2 Bft) SW 225 0 min 0,0 UV-I 13,5 C 23,5 C 10,6 km/h (2 Bft)
15.06.2013 18:15 22,5 C 23,1 C 21,1 C 23,3 C 23,3 C 0,8 C 57 % 68 % 21 % 1012,8 hPa 0,0 l/m 6,6 km/h (2 Bft) W 270 0 min 0,0 UV-I 13,5 C 23,3 C 12,7 km/h (3 Bft)
15.06.2013 18:20 22,6 C 23,1 C 21,2 C 24,0 C 24,0 C 1,4 C 58 % 68 % 37 % 1012,8 hPa 0,0 l/m 6,8 km/h (2 Bft) W-SW 247 0 min 0,0 UV-I 13,9 C 24,0 C 6,3 km/h (2 Bft)
15.06.2013 18:25 22,6 C 23,1 C 21,2 C 24,1 C 24,1 C 1,5 C 58 % 68 % 39 % 1012,8 hPa 0,0 l/m 6,4 km/h (2 Bft) W-SW 247 0 min 0,0 UV-I 13,9 C 24,1 C 5,6 km/h (1 Bft)
15.06.2013 18:30 22,5 C 23,1 C 21,2 C 23,9 C 23,9 C 1,4 C 58 % 67 % 37 % 1012,8 hPa 0,0 l/m 5,5 km/h (1 Bft) W-SW 247 0 min 0,0 UV-I 13,8 C 23,9 C 4,0 km/h (1 Bft)
15.06.2013 18:35 22,5 C 23,1 C 21,2 C 24,0 C 24,0 C 1,5 C 58 % 68 % 39 % 1012,9 hPa 0,0 l/m 5,3 km/h (1 Bft) N-NO 22 0 min 0,0 UV-I 13,8 C 24,0 C 8,7 km/h (2 Bft)
15.06.2013 18:41 22,6 C 23,1 C 21,2 C 24,2 C 24,2 C 1,6 C 58 % 68 % 42 % 1012,9 hPa 0,0 l/m 4,8 km/h (1 Bft) N 0 0 min 0,0 UV-I 13,9 C 24,2 C 4,0 km/h (1 Bft)
15.06.2013 19:00 22,7 C 23,1 C 21,1 C 24,4 C 24,4 C 1,7 C 59 % 70 % 45 % 1012,1 hPa 0,0 l/m 4,7 km/h (1 Bft) SW 225 0 min 0,0 UV-I 14,3 C 24,4 C 3,9 km/h (1 Bft)
15.06.2013 19:05 22,8 C 23,1 C 21,1 C 24,4 C 24,4 C 1,6 C 59 % 70 % 42 % 1012,1 hPa 0,0 l/m 4,3 km/h (1 Bft) SW 225 0 min 0,0 UV-I 14,4 C 24,4 C 4,3 km/h (1 Bft)
15.06.2013 19:10 22,7 C 23,1 C 21,1 C 24,0 C 24,0 C 1,3 C 58 % 70 % 34 % 1012,1 hPa 0,0 l/m 4,5 km/h (1 Bft) W-SW 247 0 min 0,0 UV-I 14,0 C 24,0 C 5,1 km/h (1 Bft)
15.06.2013 19:15 22,7 C 23,1 C 21,1 C 23,8 C 23,8 C 1,1 C 59 % 70 % 29 % 1011,8 hPa 0,0 l/m 4,5 km/h (1 Bft) SW 225 0 min 0,0 UV-I 14,3 C 23,8 C 6,9 km/h (2 Bft)
15.06.2013 19:20 22,5 C 23,2 C 21,1 C 23,9 C 23,9 C 1,4 C 60 % 71 % 37 % 1011,8 hPa 0,0 l/m 4,3 km/h (1 Bft) W-SW 247 0 min 0,0 UV-I 14,3 C 23,9 C 4,0 km/h (1 Bft)
15.06.2013 19:25 22,7 C 23,2 C 21,1 C 24,2 C 24,2 C 1,5 C 60 % 72 % 39 % 1011,8 hPa 0,0 l/m 4,0 km/h (1 Bft) W-NW 292 0 min 0,0 UV-I 14,5 C 24,2 C 5,0 km/h (1 Bft)
15.06.2013 19:30 22,8 C 23,2 C 21,0 C 24,5 C 24,5 C 1,7 C 59 % 71 % 45 % 1011,8 hPa 0,0 l/m 3,2 km/h (1 Bft) SW 225 0 min 0,0 UV-I 14,4 C 24,5 C 2,9 km/h (1 Bft)
15.06.2013 19:35 22,9 C 23,2 C 21,0 C 24,5 C 24,5 C 1,6 C 59 % 71 % 42 % 1012,4 hPa 0,0 l/m 3,1 km/h (1 Bft) W-SW 247 0 min 0,0 UV-I 14,5 C 24,5 C 2,6 km/h (1 Bft)
15.06.2013 19:40 22,8 C 23,2 C 20,7 C 24,0 C 24,0 C 1,2 C 59 % 71 % 32 % 1012,4 hPa 0,0 l/m 2,7 km/h (1 Bft) W-SW 247 0 min 0,0 UV-I 14,4 C 24,0 C 2,6 km/h (1 Bft)
15.06.2013 19:45 22,6 C 23,2 C 20,6 C 23,3 C 23,3 C 0,7 C 60 % 72 % 18 % 1012,4 hPa 0,0 l/m 2,6 km/h (1 Bft) SW 225 0 min 0,0 UV-I 14,4 C 23,3 C 0,0 km/h (0 Bft)
15.06.2013 19:50 22,3 C 23,2 C 20,5 C 22,6 C 22,6 C 0,3 C 60 % 72 % 8 % 1012,4 hPa 0,0 l/m 3,1 km/h (1 Bft) W-SW 247 0 min 0,0 UV-I 14,2 C 22,6 C 3,5 km/h (1 Bft)
15.06.2013 19:55 22,2 C 23,2 C 20,3 C 22,3 C 22,3 C 0,1 C 61 % 73 % 3 % 1012,4 hPa 0,0 l/m 2,7 km/h (1 Bft) SW 225 0 min 0,0 UV-I 14,3 C 22,3 C 3,4 km/h (1 Bft)
15.06.2013 20:00 22,0 C 23,2 C 20,1 C 21,9 C 21,8 C 0,0 C 62 % 73 % 0 % 1012,4 hPa 0,0 l/m 1,8 km/h (1 Bft) W-SW 247 0 min 0,0 UV-I 14,4 C 21,8 C 2,1 km/h (1 Bft)
15.06.2013 20:05 21,9 C 23,2 C 20,0 C 21,8 C 21,6 C 0,0 C 62 % 74 % 0 % 1012,4 hPa 0,0 l/m 1,6 km/h (1 Bft) W 270 0 min 0,0 UV-I 14,3 C 21,6 C 2,6 km/h (1 Bft)
15.06.2013 20:10 21,7 C 23,2 C 20,0 C 21,6 C 21,3 C 0,0 C 62 % 74 % 0 % 1012,4 hPa 0,0 l/m 1,1 km/h (1 Bft) W-SW 247 0 min 0,0 UV-I 14,1 C 21,3 C 2,7 km/h (1 Bft)
15.06.2013 20:15 21,7 C 23,2 C 19,9 C 21,5 C 21,2 C 0,0 C 63 % 75 % 0 % 1012,6 hPa 0,0 l/m 1,0 km/h (0 Bft) S-SW 202 0 min 0,0 UV-I 14,3 C 21,2 C 2,4 km/h (1 Bft)
15.06.2013 20:20 21,4 C 23,2 C 19,7 C 21,2 C 20,9 C 0,0 C 64 % 75 % 0 % 1012,6 hPa 0,0 l/m 0,5 km/h (0 Bft) SW 225 0 min 0,0 UV-I 14,3 C 20,9 C 0,0 km/h (0 Bft)
15.06.2013 20:25 21,4 C 23,2 C 19,6 C 21,2 C 20,8 C 0,0 C 64 % 75 % 0 % 1012,6 hPa 0,0 l/m 0,2 km/h (0 Bft) W-SW 247 0 min 0,0 UV-I 14,3 C 20,8 C 0,0 km/h (0 Bft)
15.06.2013 20:30 21,3 C 23,2 C 19,6 C 21,0 C 20,5 C 0,0 C 65 % 76 % 0 % 1012,6 hPa 0,0 l/m 0,0 km/h (0 Bft) W-SW 247 0 min 0,0 UV-I 14,4 C 20,5 C 0,0 km/h (0 Bft)
15.06.2013 20:35 21,2 C 23,3 C 19,4 C 20,9 C 20,3 C 0,0 C 66 % 76 % 0 % 1013,1 hPa 0,0 l/m 0,2 km/h (0 Bft) W-SW 247 0 min 0,0 UV-I 14,6 C 20,3 C 2,1 km/h (1 Bft)
15.06.2013 20:40 21,0 C 23,3 C 19,4 C 20,7 C 20,2 C 0,0 C 67 % 77 % 0 % 1013,1 hPa 0,0 l/m 0,2 km/h (0 Bft) SW 225 0 min 0,0 UV-I 14,6 C 20,2 C 0,0 km/h (0 Bft)
15.06.2013 20:45 20,8 C 23,3 C 19,3 C 20,5 C 20,0 C 0,0 C 68 % 77 % 0 % 1013,1 hPa 0,0 l/m 0,2 km/h (0 Bft) SW 225 0 min 0,0 UV-I 14,7 C 20,0 C 0,0 km/h (0 Bft)
15.06.2013 20:50 20,7 C 23,3 C 19,2 C 20,4 C 19,8 C 0,0 C 69 % 78 % 0 % 1013,1 hPa 0,0 l/m 0,0 km/h (0 Bft) W-SW 247 0 min 0,0 UV-I 14,8 C 19,8 C 0,0 km/h (0 Bft)
15.06.2013 20:55 20,7 C 23,3 C 19,1 C 20,4 C 19,7 C 0,0 C 70 % 78 % 0 % 1012,8 hPa 0,0 l/m 0,0 km/h (0 Bft) W 270 0 min 0,0 UV-I 15,0 C 19,7 C 0,0 km/h (0 Bft)
15.06.2013 21:00 20,5 C 23,4 C 18,9 C 20,2 C 19,5 C 0,0 C 70 % 78 % 0 % 1012,8 hPa 0,0 l/m 0,0 km/h (0 Bft) O-NO 67 0 min 0,0 UV-I 14,8 C 19,5 C 0,0 km/h (0 Bft)
15.06.2013 21:05 20,2 C 23,3 C 18,8 C 19,9 C 19,3 C 0,0 C 70 % 78 % 0 % 1012,8 hPa 0,0 l/m 0,0 km/h (0 Bft) S-SW 202 0 min 0,0 UV-I 14,5 C 19,3 C 0,0 km/h (0 Bft)
15.06.2013 21:10 20,0 C 23,4 C 18,6 C 19,7 C 19,1 C 0,0 C 71 % 78 % 0 % 1012,8 hPa 0,0 l/m 0,0 km/h (0 Bft) O-SO 112 0 min 0,0 UV-I 14,6 C 19,1 C 0,0 km/h (0 Bft)
15.06.2013 21:15 19,9 C 23,4 C 18,6 C 19,6 C 19,0 C 0,0 C 72 % 79 % 0 % 1013,1 hPa 0,0 l/m 0,0 km/h (0 Bft) O-SO 112 0 min 0,0 UV-I 14,7 C 19,0 C 0,0 km/h (0 Bft)
15.06.2013 21:20 19,6 C 23,4 C 18,4 C 19,3 C 18,8 C 0,0 C 72 % 79 % 0 % 1013,1 hPa 0,0 l/m 0,0 km/h (0 Bft) O-NO 67 0 min 0,0 UV-I 14,4 C 18,8 C 0,0 km/h (0 Bft)
15.06.2013 21:25 19,5 C 23,5 C 18,5 C 19,2 C 18,7 C 0,0 C 72 % 79 % 0 % 1013,1 hPa 0,0 l/m 0,0 km/h (0 Bft) O-NO 67 0 min 0,0 UV-I 14,3 C 18,7 C 0,0 km/h (0 Bft)
15.06.2013 21:30 19,4 C 23,5 C 18,3 C 19,1 C 18,5 C 0,0 C 72 % 79 % 0 % 1013,1 hPa 0,0 l/m 0,0 km/h (0 Bft) O-NO 67 0 min 0,0 UV-I 14,2 C 18,5 C 0,0 km/h (0 Bft)
15.06.2013 21:35 19,2 C 23,5 C 18,1 C 18,9 C 18,4 C 0,0 C 73 % 79 % 0 % 1013,0 hPa 0,0 l/m 0,0 km/h (0 Bft) O-NO 67 0 min 0,0 UV-I 14,2 C 18,4 C 0,0 km/h (0 Bft)
15.06.2013 21:40 19,1 C 23,5 C 18,0 C 18,8 C 18,2 C 0,0 C 74 % 79 % 0 % 1013,0 hPa 0,0 l/m 0,0 km/h (0 Bft) O-NO 67 0 min 0,0 UV-I 14,4 C 18,2 C 0,0 km/h (0 Bft)
15.06.2013 21:45 18,9 C 23,5 C 17,9 C 18,6 C 18,1 C 0,0 C 75 % 79 % 0 % 1013,0 hPa 0,0 l/m 0,0 km/h (0 Bft) O-NO 67 0 min 0,0 UV-I 14,4 C 18,1 C 0,0 km/h (0 Bft)
15.06.2013 21:50 18,7 C 23,5 C 17,8 C 18,4 C 17,9 C 0,0 C 75 % 79 % 0 % 1013,0 hPa 0,0 l/m 0,0 km/h (0 Bft) O-NO 67 0 min 0,0 UV-I 14,2 C 17,9 C 0,0 km/h (0 Bft)
15.06.2013 21:55 18,6 C 23,5 C 17,6 C 18,3 C 17,8 C 0,0 C 75 % 79 % 0 % 1013,4 hPa 0,0 l/m 0,0 km/h (0 Bft) O-NO 67 0 min 0,0 UV-I 14,1 C 17,8 C 0,0 km/h (0 Bft)
15.06.2013 22:00 18,5 C 23,5 C 17,5 C 18,2 C 17,6 C 0,0 C 75 % 80 % 0 % 1013,4 hPa 0,0 l/m 0,0 km/h (0 Bft) O-NO 67 0 min 0,0 UV-I 14,0 C 17,6 C 0,0 km/h (0 Bft)
15.06.2013 22:05 18,4 C 23,5 C 17,5 C 18,1 C 17,4 C 0,0 C 75 % 80 % 0 % 1013,4 hPa 0,0 l/m 0,0 km/h (0 Bft) O-NO 67 0 min 0,0 UV-I 13,9 C 17,4 C 0,0 km/h (0 Bft)
15.06.2013 22:10 18,3 C 23,5 C 17,5 C 18,0 C 17,3 C 0,0 C 76 % 80 % 0 % 1013,4 hPa 0,0 l/m 0,0 km/h (0 Bft) O-NO 67 0 min 0,0 UV-I 14,0 C 17,3 C 0,0 km/h (0 Bft)
15.06.2013 22:15 18,1 C 23,5 C 17,3 C 17,8 C 17,2 C 0,0 C 76 % 80 % 0 % 1013,6 hPa 0,0 l/m 0,0 km/h (0 Bft) O-NO 67 0 min 0,0 UV-I 13,8 C 17,2 C 0,0 km/h (0 Bft)
15.06.2013 22:20 18,0 C 23,5 C 17,2 C 17,7 C 17,2 C 0,0 C 76 % 80 % 0 % 1013,6 hPa 0,0 l/m 0,0 km/h (0 Bft) O-NO 67 0 min 0,0 UV-I 13,7 C 17,2 C 0,0 km/h (0 Bft)
15.06.2013 22:25 17,9 C 23,5 C 17,1 C 17,6 C 17,1 C 0,0 C 76 % 80 % 0 % 1013,6 hPa 0,0 l/m 0,0 km/h (0 Bft) O-NO 67 0 min 0,0 UV-I 13,6 C 17,1 C 0,0 km/h (0 Bft)
15.06.2013 22:30 17,9 C 23,5 C 17,0 C 17,6 C 17,0 C 0,0 C 77 % 80 % 0 % 1013,6 hPa 0,0 l/m 0,0 km/h (0 Bft) O-NO 67 0 min 0,0 UV-I 13,8 C 17,0 C 0,0 km/h (0 Bft)
15.06.2013 22:35 17,8 C 23,5 C 17,0 C 17,5 C 16,9 C 0,0 C 77 % 80 % 0 % 1013,8 hPa 0,0 l/m 0,0 km/h (0 Bft) O-NO 67 0 min 0,0 UV-I 13,7 C 16,9 C 0,0 km/h (0 Bft)
15.06.2013 22:40 17,7 C 23,5 C 16,9 C 17,4 C 16,8 C 0,0 C 78 % 80 % 0 % 1013,8 hPa 0,0 l/m 0,0 km/h (0 Bft) NW 315 0 min 0,0 UV-I 13,8 C 16,8 C 0,0 km/h (0 Bft)
15.06.2013 22:45 17,7 C 23,5 C 16,9 C 17,4 C 16,7 C 0,0 C 78 % 80 % 0 % 1013,8 hPa 0,0 l/m 0,0 km/h (0 Bft) NW 315 0 min 0,0 UV-I 13,8 C 16,7 C 0,0 km/h (0 Bft)
15.06.2013 22:50 17,5 C 23,5 C 16,8 C 17,2 C 16,6 C 0,0 C 78 % 81 % 0 % 1013,8 hPa 0,0 l/m 0,0 km/h (0 Bft) SW 225 0 min 0,0 UV-I 13,6 C 16,6 C 0,0 km/h (0 Bft)
15.06.2013 22:55 17,5 C 23,5 C 16,7 C 17,2 C 16,5 C 0,0 C 78 % 81 % 0 % 1013,8 hPa 0,0 l/m 0,0 km/h (0 Bft) SW 225 0 min 0,0 UV-I 13,6 C 16,5 C 0,0 km/h (0 Bft)
15.06.2013 23:00 17,3 C 23,5 C 16,7 C 17,0 C 16,3 C 0,0 C 79 % 81 % 0 % 1013,8 hPa 0,0 l/m 0,0 km/h (0 Bft) SW 225 0 min 0,0 UV-I 13,6 C 16,3 C 0,0 km/h (0 Bft)
15.06.2013 23:05 17,2 C 23,5 C 16,7 C 16,9 C 16,3 C 0,0 C 80 % 81 % 0 % 1013,8 hPa 0,0 l/m 0,0 km/h (0 Bft) N-NW 337 0 min 0,0 UV-I 13,7 C 16,3 C 0,0 km/h (0 Bft)
15.06.2013 23:10 17,2 C 23,5 C 16,7 C 16,9 C 16,2 C 0,0 C 80 % 81 % 0 % 1013,8 hPa 0,0 l/m 0,0 km/h (0 Bft) NW 315 0 min 0,0 UV-I 13,7 C 16,2 C 0,0 km/h (0 Bft)
15.06.2013 23:15 17,1 C 23,5 C 16,7 C 16,8 C 16,2 C 0,0 C 80 % 81 % 0 % 1013,2 hPa 0,0 l/m 0,0 km/h (0 Bft) N-NW 337 0 min 0,0 UV-I 13,6 C 16,2 C 0,0 km/h (0 Bft)
15.06.2013 23:20 17,1 C 23,6 C 16,6 C 16,8 C 16,1 C 0,0 C 81 % 81 % 0 % 1013,2 hPa 0,0 l/m 0,0 km/h (0 Bft) NW 315 0 min 0,0 UV-I 13,8 C 16,1 C 0,0 km/h (0 Bft)
15.06.2013 23:25 17,1 C 23,6 C 16,5 C 16,8 C 16,1 C 0,0 C 81 % 81 % 0 % 1013,2 hPa 0,0 l/m 0,0 km/h (0 Bft) NW 315 0 min 0,0 UV-I 13,8 C 16,1 C 0,0 km/h (0 Bft)
15.06.2013 23:30 16,8 C 23,7 C 16,4 C 16,5 C 16,0 C 0,0 C 81 % 81 % 0 % 1013,2 hPa 0,0 l/m 0,0 km/h (0 Bft) W-NW 292 0 min 0,0 UV-I 13,5 C 16,0 C 0,0 km/h (0 Bft)
15.06.2013 23:35 16,8 C 23,7 C 16,4 C 16,5 C 15,9 C 0,0 C 81 % 81 % 0 % 1013,2 hPa 0,0 l/m 0,0 km/h (0 Bft) S 180 0 min 0,0 UV-I 13,5 C 15,9 C 0,0 km/h (0 Bft)
15.06.2013 23:40 16,7 C 23,6 C 16,3 C 16,4 C 15,8 C 0,0 C 82 % 81 % 0 % 1013,2 hPa 0,0 l/m 0,0 km/h (0 Bft) W-SW 247 0 min 0,0 UV-I 13,6 C 15,8 C 0,0 km/h (0 Bft)
15.06.2013 23:45 16,7 C 23,6 C 16,3 C 16,4 C 15,8 C 0,0 C 82 % 81 % 0 % 1013,2 hPa 0,0 l/m 0,2 km/h (0 Bft) SW 225 0 min 0,0 UV-I 13,6 C 15,8 C 0,0 km/h (0 Bft)
15.06.2013 23:50 16,5 C 23,4 C 16,2 C 16,3 C 15,9 C 0,0 C 81 % 81 % 0 % 1013,2 hPa 0,0 l/m 0,2 km/h (0 Bft) W-SW 247 0 min 0,0 UV-I 13,2 C 15,9 C 1,8 km/h (1 Bft)
15.06.2013 23:55 16,4 C 23,4 C 16,3 C 16,3 C 16,1 C 0,0 C 80 % 81 % 0 % 1013,7 hPa 0,0 l/m 0,3 km/h (0 Bft) S 180 0 min 0,0 UV-I 12,9 C 16,1 C 3,2 km/h (1 Bft)
_ Min-Zeit 05:30 08:45 05:05 05:05 05:05 00:00 14:00 14:45 00:00 19:15 - 00:00 - - - 00:00 05:30 05:05 00:00
Minimum _ 7,3 C 21,8 C 9,4 C 7,5 C 7,5 C 0,0 C 53 % 61 % 0 % 1011,8 hPa - 0,0 km/h (0 Bft) - - - 0,0 UV-I 5,6 C 7,5 C 0,0 km/h (0 Bft)
_ Max-Zeit 13:20 23:30 17:10 11:55 11:55 08:30 08:05 04:35 07:20 00:00 00:00 17:25 - - 13:00 07:05 11:50 11:55 18:00
Maximum _ 24,1 C 23,7 C 22,5 C 29,6 C 29,6 C 11,7 C 93 % 84 % 100 % 1018,3 hPa 0,0 l/m 7,6 km/h
S-SW (2 Bft)
- - 19 min 0,2 UV-I 15,4 C 29,6 C 20,1 km/h
W-SW (4 Bft)
Durchschnitt _ 17,1 C 22,7 C 16,7 C 19,5 C 19,4 C 2,5 C 73 % 76 % 44 % 1014,9 hPa #0,0 l/m 1,6 km/h (1 Bft) W-SW - #7:05 h 0,2 UV-I 11,8 C 19,4 C 2,5 km/h (1 Bft)
2013 www.wetterstation-wechselburg.de